sat.trackr.live / text

‹ back to catalog

STARLINK-32589

NORAD 62183 · 2024-225W

PAYLOAD ACTIVE UNKNOWN

§ Identity

Operator
Country
US
Launch date
2024-11-30
Launch site
AFWTR
Launch vehicle
Mass (kg)
RCS (m²)

Purposes: comms

External: N2YO · Heavens-Above · Gunter

§ Orbital elements

Epoch: 2026-09-21T22:00:03.000096Z

Period
95.44 min
Inclination
70.0005°
Eccentricity
0.0004757
Mean motion
15.08862600 rev/d
Perigee alt
536.4 km
Apogee alt
543.0 km
Semi-major
6,917.8 km
B*
9.4587e-5
RAAN
29.8137°
Arg perigee
291.6756°
Mean anomaly
117.9258°
Rev number
549

§ Raw data

STARLINK-325891 62183U 24225W   26264.91670139  .00001390  00000+0  94587-4 0  99902 62183  70.0005  29.8137 0004757 291.6756 117.9258 15.08862600  5490

JSON: /api/v1/satellites/62183 · /tle

For live sub-satellite position, see the globe view (requires WebGL).

§ Visibility from observer

Set your observer location to see the next 7 days of passes ≥ 10°. The values pass through the URL so the page stays shareable.

No JS? Fill the form by hand. The geolocation button needs JavaScript.